Location: Ariel
(45.9570°N, 122.5700°W)
Time: 17:54:12
(UTC-07:00)

DX 1 - Visible Passes

Search period start: 23 October 2020 00:00
Search period end: 01 November 2020 23:00
Orbit: 618 x 631 km, 98.5° (Epoch: 23 October)

Date Brightness Start Highest point End Pass type
(mag) Time Alt. Az. Time Alt. Az. Time Alt. Az.
23 Oct ? 05:31:17 10° ESE 05:34:36 22° ENE 05:37:56 10° NNE visible
23 Oct ? 07:06:25 10° S 07:10:30 41° W 07:14:37 10° NNW visible
23 Oct ? 18:51:55 10° NE 18:55:34 26° E 18:59:12 10° SSE visible
23 Oct ? 20:27:51 10° N 20:31:44 33° WNW 20:35:37 10° SW visible
24 Oct ? 05:49:21 10° SE 05:53:12 32° ENE 05:57:03 10° N visible
24 Oct ? 19:10:19 10° NNE 19:14:24 40° E 19:18:29 10° S visible
24 Oct ? 20:46:57 10° NNW 20:50:20 23° WNW 20:53:42 10° WSW visible
25 Oct ? 06:07:41 10° SE 06:11:50 48° ENE 06:16:00 10° N visible
25 Oct ? 19:28:53 10° NNE 19:33:12 62° ESE 19:37:29 10° S visible
25 Oct ? 21:06:18 10° NNW 21:08:52 16° WNW 21:11:28 10° W visible
26 Oct ? 06:26:13 10° SSE 06:30:31 75° ENE 06:34:52 10° N visible
26 Oct ? 19:47:35 10° NNE 19:51:57 85° WNW 19:56:17 10° SSW visible
26 Oct ? 21:26:22 10° NW 21:27:22 11° WNW 21:28:23 10° WNW visible
27 Oct ? 05:11:24 10° E 05:13:39 14° ENE 05:15:54 10° NNE visible
27 Oct ? 06:44:57 10° S 06:49:15 71° WSW 06:53:35 10° NNW visible
27 Oct ? 18:31:30 10° NE 18:34:10 16° E 18:36:51 10° SE visible
27 Oct ? 20:06:24 10° N 20:10:39 54° WNW 20:14:53 10° SSW visible
28 Oct ? 05:29:01 10° ESE 05:32:11 20° ENE 05:35:21 10° NNE visible
28 Oct ? 07:03:54 10° S 07:08:02 45° W 07:12:12 10° NNW visible
28 Oct ? 18:49:32 10° NE 18:53:05 24° E 18:56:36 10° SSE visible
28 Oct ? 20:25:20 10° N 20:29:18 36° WNW 20:33:16 10° SW visible
29 Oct ? 05:47:01 10° SE 05:50:46 29° ENE 05:54:31 10° N visible
29 Oct ? 19:07:54 10° NNE 19:11:56 36° E 19:15:57 10° SSE visible
29 Oct ? 20:44:23 10° N 20:47:55 24° WNW 20:51:25 10° WSW visible
30 Oct ? 06:05:18 10° SE 06:09:23 44° ENE 06:13:31 10° N visible
30 Oct ? 19:26:27 10° NNE 19:30:44 57° E 19:35:01 10° S visible
30 Oct ? 21:03:40 10° NNW 21:06:28 17° WNW 21:09:16 10° WSW visible
31 Oct ? 06:23:47 10° SSE 06:28:04 68° ENE 06:32:23 10° N visible
31 Oct ? 19:45:07 10° NNE 19:49:30 88° ESE 19:53:51 10° SSW visible
31 Oct ? 21:23:26 10° NW 21:24:59 12° WNW 21:26:30 10° WNW visible
01 Nov ? 04:09:16 10° E 04:11:15 13° ENE 04:13:13 10° NNE visible
01 Nov ? 05:42:28 10° S 05:46:48 78° WSW 05:51:08 10° NNW visible
01 Nov ? 17:29:14 10° ENE 17:31:41 15° E 17:34:06 10° SE visible
01 Nov ? 19:03:55 10° N 19:08:12 60° WNW 19:12:29 10° SSW visible
